{"data":{"norad_id":53499,"intl_designator":"2022-099AL","name":"STARLINK-4454","alt_names":[],"object_type":"PAYLOAD","status":"ACTIVE","operator":null,"country":"US","launch_date":"2022-08-12","launch_site_code":"AFWTR","launch_vehicle":null,"mission":null,"orbit_class":"UNKNOWN","rcs_meters":null,"size_class":null,"mass_kg":null,"dimensions":null,"purposes":["comms"],"wikipedia_slug":null,"has_3d_model":false,"image_url":null,"decayed_at":null,"tle_current":{"epoch":"2026-05-25T04:00:03.998880Z","epoch_age_seconds":60403,"freshness":"FRESH","line1":"1 53499U 22099AL  26145.16671295 -.00582673  00000+0 -19894-1 0  9991","line2":"2 53499  97.6015 267.8209 0001780  70.3113  88.4342 15.32764496  5703","mean_motion":15.32764496,"eccentricity":0.000178,"inclination_deg":97.6015,"raan_deg":267.8209,"arg_perigee_deg":70.3113,"mean_anomaly_deg":88.4342,"bstar":-0.019894,"rev_number":570,"period_min":93.947896350543,"perigee_km":466.3500890603,"apogee_km":468.78716026268,"semimajor_km":6845.7056246615,"source":"CELESTRAK","updated_at":"2026-05-25T13:38:17.436798Z"}}}